Location: *
(17.3280°S, 114.7300°W)
Time: 07:43:56
(UTC+00:00)

NOAA 6 - Pass Details

Date: 05 August 2020
Orbit: 772 x 787 km, 98.7° (Epoch: 20 September)

Event Time Altitude Azimuth Distance (km) Brightness Sun altitude
Rises 13:06:30 0° 5° (N) 3,235 7.5 -13.8°
Reaches altitude 10° 13:08:49 10° 2° (N) 2,316 6.7 -13.2°
Maximum altitude 13:13:52 61° 282° (WNW) 880 4.0 -12.1°
Drops below altitude 10° 13:18:59 10° 201° (SSW) 2,348 6.2 -10.9°
Sets 13:21:21 0° 198° (SSW) 3,284 7.0 -10.3°
